This is the latest recevied weather packets stored in our database for station/object M8FSI-13. If no packets are shown the sender has not sent any weather packets the latest 10 day(s).
| Time | Temp. | Humidity | Pressure | Rain* | Wind** | Luminosity | Snow |
|---|---|---|---|---|---|---|---|
| 1777978521 | 15.56° C | 62% | 1013 hPa | 0 mm | - | - | - |
| 1777965334 | 12.78° C | 80% | 1013.5 hPa | 0 mm | - | - | - |
| 1777962924 | 12.22° C | 85% | 1014 hPa | 0 mm | - | - | - |
| 1777961739 | 12.22° C | 86% | 1013.7 hPa | 0 mm | - | - | - |
| 1777961119 | 11.67° C | 86% | 1013.8 hPa | 0 mm | - | - | - |
| 1777958119 | 11.67° C | 88% | 1013.7 hPa | 0 mm | - | - | - |
| 1777953338 | 11.67° C | 87% | 1013.7 hPa | 0 mm | - | - | - |
| 1777952119 | 12.22° C | 88% | 1014.1 hPa | 0 mm | - | - | - |
| 1777947318 | 12.22° C | 88% | 1014.2 hPa | 0 mm | - | - | - |
| 1777944919 | 12.78° C | 88% | 1014.5 hPa | 0 mm | - | - | - |
| 1777943738 | 12.78° C | 88% | 1014.5 hPa | 0 mm | - | - | - |
| 1777937120 | 12.78° C | 90% | 1015.1 hPa | 0 mm | - | - | - |
| 1777936551 | 12.78° C | 91% | 1014.9 hPa | 0 mm | - | - | - |
| 1777933534 | 12.78° C | 91% | 1015.1 hPa | 0 mm | - | - | - |
| 1777929918 | 12.78° C | 90% | 1015.4 hPa | 0 mm | - | - | - |
| 1777929341 | 12.78° C | 89% | 1015.3 hPa | 0 mm | - | - | - |
| 1777928135 | 12.78° C | 88% | 1015.3 hPa | 0 mm | - | - | - |
| 1777924539 | 13.33° C | 87% | 1015.1 hPa | 0 mm | - | - | - |
| 1777920949 | 13.89° C | 86% | 1014.9 hPa | 0.51 mm | - | - | - |
| 1777918578 | 14.44° C | 82% | 1014.5 hPa | 0.51 mm | - | - | - |
| 1777914924 | 17.22° C | 72% | 1014.2 hPa | 0 mm | - | - | - |
| 1777907133 | 15° C | 79% | 1014.5 hPa | 0 mm | - | - | - |
| 1777901782 | 16.67° C | 73% | 1014.3 hPa | 0 mm | - | - | - |
| 1777896340 | 17.78° C | 69% | 1014.6 hPa | 0 mm | - | - | - |
| 1777895720 | 17.78° C | 70% | 1014.7 hPa | 0 mm | - | - | - |
* Rain latest hour (hover to see other rain measurements)
** Current wind speed in m/s (hover to see current wind gust speed)